Location: *
(33.8649°S, 62.1526°E)
Time: 03:35:14
(UTC+00:00)

NOSS 3-3 (C) - Pass Details

Date: 17 January 2021
Orbit: 814 x 1398 km, 63.4° (Epoch: 25 February)

Event Time Altitude Azimuth Distance (km) Brightness Sun altitude
Rises 16:27:51 0° 213° (SSW) 3,712 8.5 -15.5°
Reaches altitude 10° 16:30:34 10° 214° (SW) 2,680 7.5 -15.9°
Maximum altitude 16:36:41 73° 298° (WNW) 912 3.9 -16.9°
Enters shadow 16:40:10 24° 18° (NNE) 1,681 4.8 -17.4°
